Flag for Jersey Weather past 2 weeks in Saint Helier, Jersey

Now
50 °F

Passing clouds.


Feels Like: 46 °F
Forecast: 44 / 53 °F
Wind: 10 mph from North

Location: Jersey Airport

Current Time: Apr 27, 2015 at 10:51:14 AM

Latest Report: Apr 27, 2015 at 10:20 AM


Visibility: N/A

Pressure: 29.89 "Hg

Humidity: 71%

Dew point: 41 °F

Location of Saint HelierLocation

Historic Weather in Saint Helier — Graph

°F

Saint Helier temperature yesterday

Maximum temperature yesterday: 55 °F (at 9:50 AM)
Minimum temperature yesterday: 50 °F (at 5:50 PM)
Average temperature yesterday: 53 °F

Past Weeks' High & Low Weather Summary

 TemperatureHumidityPressure
High75 °F (Apr 15, 3:20 PM)100% (Apr 13, 3:50 AM)30.48 "Hg (Apr 13, 3:50 AM)
Low46 °F (Apr 12, 8:50 PM)31% (Apr 15, 4:20 PM)29.68 "Hg (Apr 26, 3:50 PM)
Average55 °F76%30.10 "Hg
* Reported Apr 12 9:20 AM — Apr 27 9:20 AM, Saint Helier, Weather by CustomWeather, © 2015

Note: Actual official high and low records may vary slightly from our data, if they occured in-between our weather recording intervals... More about our weather records

Advertising

Saint Helier weather history for previous 24 hours

 ConditionsComfort  
Time TempWeatherWind HumidityBarometerVisibility
9:20 AM
Mon, Apr 27
48 °FSunny.12 mph76%29.86 "Hg10 mi
8:50 AM48 °FSunny.13 mph76%29.86 "Hg10 mi
8:20 AM48 °FSunny.15 mph76%29.86 "Hg10 mi
7:50 AM48 °FSunny.13 mph76%29.86 "Hg10 mi
7:20 AM48 °FSunny.7 mph76%29.83 "Hg10 mi
6:50 AM46 °FPassing clouds.9 mph82%29.83 "HgN/A
6:20 AM46 °FPassing clouds.9 mph82%29.83 "HgN/A
5:50 AM46 °FPassing clouds.10 mph82%29.80 "HgN/A
5:20 AM46 °FPassing clouds.12 mph82%29.80 "HgN/A
4:20 AM48 °FPassing clouds.17 mph82%29.80 "HgN/A
3:50 AM48 °FPassing clouds.13 mph87%29.80 "HgN/A
9:20 PM
Sun, Apr 26
50 °FPassing clouds.8 mph94%29.77 "HgN/A
8:50 PM50 °FScattered clouds.10 mph94%29.74 "HgN/A
8:20 PM50 °FPartly sunny.12 mph94%29.74 "HgN/A
7:50 PM50 °FSleet. Partly sunny.15 mph94%29.71 "HgN/A
7:20 PM50 °FSleet. Partly sunny.13 mph94%29.71 "HgN/A
6:50 PM50 °FDrizzle. Fog.17 mph94%29.71 "Hg2 mi
6:20 PM50 °FDrizzle. Fog.16 mph100%29.71 "Hg1 mi
5:50 PM50 °FSprinkles. Partly sunny.10 mph100%29.71 "Hg3 mi
5:20 PM52 °FSprinkles. Partly sunny.14 mph94%29.71 "Hg4 mi
4:50 PM52 °FPartly sunny.13 mph94%29.71 "Hg4 mi
4:20 PM55 °FPartly sunny.15 mph88%29.68 "Hg3 mi
3:50 PM54 °FFog.16 mph94%29.68 "Hg2 mi
3:20 PM55 °FFog.10 mph88%29.71 "Hg2 mi
2:50 PM55 °FFog.14 mph94%29.71 "Hg2 mi
2:20 PM55 °FCool.12 mph94%29.71 "Hg1 mi
1:50 PM54 °FFog.9 mph100%29.71 "Hg2 mi
1:20 PM54 °FLight rain. Fog.9 mph100%29.71 "Hg2 mi
12:50 PM54 °FPartly sunny.9 mph100%29.71 "Hg4 mi
12:20 PM54 °FSprinkles. Partly sunny.7 mph100%29.71 "Hg4 mi
11:50 AM54 °FDrizzle. Broken clouds.6 mph100%29.71 "Hg4 mi
11:20 AM54 °FPartly sunny.8 mph94%29.71 "Hg4 mi
10:50 AM54 °FPartly sunny.5 mph94%29.71 "HgN/A
10:20 AM55 °FBroken clouds.6 mph94%29.71 "HgN/A
Weather by CustomWeather, © 2015

See weather overviewHow to use our weather pages